Simultaneous Nadir Overpasses (SNOs) Predictions

Prediction of SNOs between METOP-A and TERRA Satellite Orbit:

Table of predicted SNOs for the next 14.0 days since TLE Epoch: 6/4/2016
Index Date (METOP-A) Time (METOP-A) Lat,Lon (METOP-A) SZA (METOP-A ) Date (TERRA) Time (TERRA) Lat,Lon (TERRA) SZA (TERRA ) Distance(km) Time Diff (sec)
1 06/05/2016 02:57:57 -81.32, 2.75 118.30 06/05/2016 02:59:09 -81.32, 2.84 118.25 1.42 72
2 06/05/2016 03:48:37 81.32, 170.57 61.76 06/05/2016 03:48:35 81.33, 170.66 61.77 1.62 2
3 06/05/2016 04:39:02 -81.35, -16.06 117.50 06/05/2016 04:37:48 -81.57, -16.37 117.45 24.93 74
4 06/07/2016 22:32:19 -81.32, 69.28 118.57 06/07/2016 22:33:25 -81.32, 69.30 118.54 0.41 66
5 06/07/2016 23:22:59 81.32,-122.94 61.48 06/07/2016 23:22:51 81.33,-122.91 61.48 0.63 8
6 06/1
